Location: Forst
(46.9333°N, 15.4333°E)
Time: 05:59:41
(UTC+00:00)

USA 215 - Pass Details

Date: 01 December 2020
Orbit: 1098 x 1110 km, 123.0° (Epoch: 14 January)

Event Time Altitude Azimuth Distance (km) Brightness Sun altitude
Exits shadow 18:46:42 62° 280° (W) 1,240 3.6 -36.0°
Drops below altitude 10° 18:52:14 10° 248° (WSW) 2,970 6.1 -36.9°
Sets 18:54:43 0° 246° (WSW) 3,927 6.9 -37.4°
